Regional Weather Roundup
Issued by NWS

Home | Current Version | Previous Version | Text Only | Print | Product List | Glossary On
Versions: 1 2 3 4 5 6 7 8 9 10 11 12 13 14 15 16 17 18 19 20 21 22 23 24 25 26 27 28 29 30 31 32 33 34 35 36 37 38 39 40 41 42 43 44 45 46 47 48 49 50
000
ASUS44 KFWD 050815
RWRTX
NORTH TEXAS HOURLY WEATHER ROUNDUP
NATIONAL WEATHER SERVICE FORT WORTH TX
300 AM CDT TUE MAY 05 2015

NOTE: "FAIR" INDICATES FEW OR NO CLOUDS BELOW 12,000 FEET WITH NO
SIGNIFICANT WEATHER AND/OR OBSTRUCTIONS TO VISIBILITY.

TXZ118-119-050900-
DALLAS/FORT WORTH METROPLEX

CITY           SKY/WX    TMP DP  RH WIND       PRES   REMARKS
DFW AIRPORT    MOCLDY    66  55  67 S9        30.01F
DALLAS LOVE    MOCLDY    67  56  67 S9        30.02F
FTW MEACHAM    PTCLDY    66  55  67 SE8       30.00F
DAL-EXECUTIVE  CLEAR     64  55  72 S6        30.02F
FTW-ALLIANCE   MOCLDY    65  55  70 SE9       30.01F
FTW-NAS-JRB    MOCLDY    68  56  65 SE9       30.01F
FTW-SPINKS     PTCLDY    63  55  77 E6        30.02F
ARLINGTON      PTCLDY    65  53  65 SE7       30.01F
GRAND PRAIRIE  PTCLDY    67  57  71 SE6       30.03F
ADDISON        CLEAR     67  57  68 S10       30.04F
MESQUITE       CLEAR     63  57  82 SE6       30.04S
LANCASTER      CLEAR     60  55  81 CALM      30.04S
$$

TXZ091>094-102>105-117-120-121-131>134-050900-
NORTH CENTRAL TEXAS

CITY           SKY/WX    TMP DP  RH WIND       PRES   REMARKS
SHRMAN/DENISON PTCLDY    66  60  79 SE8       30.05S
GAINESVILLE    PTCLDY    61  56  84 E6        30.05S
BOWIE          MOCLDY    62  53  73 SE3       30.01F
BRIDGEPORT     CLOUDY    64  56  75 SE6       30.02F
DECATUR        MOCLDY    64  52  65 SE10      30.01F
DENTON         CLEAR     65  56  72 SE8       30.02F
MCKINNEY       CLEAR     64  57  78 SE7       30.04S
GREENVILLE     CLEAR     63  55  77 CALM      30.05S
ROCKWALL       CLEAR     64  57  80 SE5       30.04R
TERRELL        CLEAR     67  57  70 CALM      30.05S
WAXAHACHIE     CLEAR     61  56  83 SE3       30.04S
CLEBURNE       PTCLDY    63  59  88 SE7       30.02F
GRANBURY       MOCLDY    67  57  71 SE7       30.01F
$$

TXZ083>090-098>101-113>116-127>130-139>142-154-155-050900-
WESTERN NORTH TEXAS

CITY           SKY/WX    TMP DP  RH WIND       PRES   REMARKS
WICHITA FALLS  CLOUDY    62  55  77 SE9       29.98F
WF-KICKAPOO    CLOUDY    66  54  66 E7        29.99F
VERNON         CLOUDY    69  51  51 SE15      29.96S
ABILENE        CLOUDY    68  58  70 SE17G25   29.92F
ABILENE-DYESS  PTCLDY    67  60  77 S20       29.90F
BRECKENRIDGE   CLOUDY    70  57  63 SE13G20   29.96S
GRAHAM         CLOUDY    67  57  71 SE9       29.96S
MINERAL WELLS  CLOUDY    64  56  75 SE7       29.98F
STEPHENVILLE   MOCLDY    66  55  68 SE10      30.01F
COMANCHE       CLOUDY    66  60  79 SE12G21   29.97F
BROWNWOOD      MOCLDY    66  59  77 S9G20     29.97R
COLEMAN        MOCLDY    67  61  79 S12G18    29.96S
$$

TXZ143>147-156>162-174-175-050900-
CENTRAL TEXAS

CITY           SKY/WX    TMP DP  RH WIND       PRES   REMARKS
WACO           CLEAR     63  57  81 SE5       30.01F
WACO-MCGREGOR  PTCLDY    63  54  72 SE7       30.02F
HILLSBORO      CLEAR     63  55  75 SE9       30.02F
CORSICANA      CLEAR     64  57  78 SE8       30.04F
MEXIA          CLEAR     62  58  86 SE3       30.03F
HEARNE         PTCLDY    63  59  88 CALM      30.03F
CAMERON        PTCLDY    64  60  88 SE5       30.01F
TEMPLE         PTCLDY    63  55  77 E8        30.00F
KILLEEN        PTCLDY    65  60  86 SE14      29.98F
KILLEEN-SKYLRK PTCLDY    66  55  68 SE9       29.98S
FORT HOOD      PTCLDY    65  59  81 SE9       29.98F
GATESVILLE     PTCLDY    66  59  77 S9        30.01F
HAMILTON       MOCLDY    65  57  75 S13       29.99F
LAMPASAS       PTCLDY    65  62  87 SE9       29.97F
$$

TXZ095>097-106>112-122>126-135>138-148>153-164>167-050900-
EAST TEXAS

CITY           SKY/WX    TMP DP  RH WIND       PRES   REMARKS
PARIS          CLEAR     61  54  77 MISG      30.06F
SULPHUR SPRNGS CLEAR     63  56  77 SE6       30.07F
MOUNT PLEASANT CLEAR     62  57  85 SE5       30.08S
GILMER           N/A    N/A N/A N/A MISG        N/A
MINEOLA        PTCLDY    61  59  94 CALM      30.07S
TYLER          CLEAR     64  57  78 SE8       30.05F
LONGVIEW       PTCLDY    66  62  87 SE6       30.06F
MARSHALL       CLEAR     69  65  86 CALM      30.10F
ATHENS         CLEAR     59  55  88 CALM      30.04F FOG
PALESTINE      CLEAR     63  59  88 CALM      30.06F
JACKSONVILLE   CLEAR     64  58  81 CALM      30.08F
HENDERSON      PTCLDY    64  61  89 E3        30.07F
NACOGDOCHES      N/A     64  61  88 E6        30.06F
LUFKIN         CLEAR     66  60  81 SE3       30.05F
$$

SUPPLEMENTAL OBSERVATIONS (CENTRAL)

CITY           SKY/WX    TMP DP  RH WIND       PRES   REMARKS
LAKE TEXOMA      N/A     63  57  82 SE6         N/A
CADDO GRASSLND   N/A     63  57  82 S5          N/A
PAT MAYSE LAKE   N/A     64  57  77 E7          N/A
GREENVILLE       N/A     63  55  77 CALM        N/A
LAKE LIMESTONE   N/A     61  57  88 E3          N/A
MCGREGOR         N/A     63  57  82 SE6         N/A
TEMPLE           N/A     63  57  82 SE7         N/A
$$

SUPPLEMENTAL OBSERVATIONS (WEST)

CITY           SKY/WX    TMP DP  RH WIND       PRES   REMARKS
MILLERS CREEK    N/A     66  57  72 SE9         N/A
POSSUM KINGDOM   N/A     66  55  68 SE8G17      N/A
LBJ GRASSLAND    N/A     64  52  63 SE7         N/A
GRANBURY         N/A     66  55  68 SE9         N/A
COMANCHE         N/A     64  57  77 SE13G25     N/A
HAMBY            N/A     68  57  68 SE10G18     N/A
COLORADO BEND    N/A     66  61  82 S9G17       N/A
$$

SUPPLEMENTAL OBSERVATIONS (EAST)

CITY           SKY/WX    TMP DP  RH WIND       PRES   REMARKS
CLARKSVILLE      N/A     64  59  82 SE6         N/A
CADDO LAKE       N/A    N/A N/A N/A E2          N/A
GILMER           N/A     64  59  82 S3          N/A
HENDERSON        N/A     64  59  82 E5          N/A
N SABINE NF      N/A     70  66  88 MISG        N/A
S SABINE NF      N/A     68  64  88 CALM        N/A
$$

SUPPLEMENTAL OBSERVATIONS ARE A COLLECTION OF AUTOMATED INSTRUMENTS
THAT ARE MAINTAINED BY A VARIETY OF FEDERAL AND STATE AGENCIES.
CERTAIN ELEMENTS...SUCH AS HUMIDITY VALUES AND SUSTAINED WIND
SPEEDS...MAY BE APPROXIMATED.



USA.gov is the U.S. government's official web portal to all federal, state and local government web resources and services.